Home   Weather   Olympia   Past weeks
Flag for Greece

Past Weather in Olympia, Greece — Yesterday and Last 2 Weeks

Now
63 °F

Clear.


Feels Like: 63 °F
Forecast: 82 / 58 °F
Wind: No wind

Location: Andravida Airport

Current Time: Oct 15, 2019 at 2:18:31 am

Latest Report: Oct 15, 2019 at 1:20 am


Visibility: 10 mi

Pressure: 30.09 "Hg

Humidity: 100%

Dew Point: 63 °F

Location of OlympiaLocation

Past Weather in Olympia — Graph

°F

Olympia Temperature Yesterday

Maximum temperature yesterday: 81 °F (at 2:50 pm)
Minimum temperature yesterday: 55 °F (at 7:20 am)
Average temperature yesterday: 67 °F

High & Low Weather Summary for the Past Weeks

 TemperatureHumidityPressure
High84 °F (Oct 12, 1:50 pm)100% (Sep 30, 12:50 am)30.18 "Hg (Sep 30, 12:50 am)
Low55 °F (Oct 9, 6:50 am)34% (Oct 5, 4:20 pm)29.53 "Hg (Oct 4, 6:50 am)
Average70 °F80%29.94 "Hg
* Reported Sep 30 12:20 am — Oct 15 12:50 am, Olympia. Weather by CustomWeather, © 2019

Note: Actual official high and low records may vary slightly from our data, if they occured in-between our weather recording intervals... More about our weather records

Advertising

Olympia Weather History for the Previous 24 Hours

Scroll right to see more
 ConditionsComfort  
Time TempWeatherWind HumidityBarometerVisibility
12:50 am
Tue, Oct 15
63 °FClear.No wind100%30.09 "Hg10 mi
12:20 am64 °FClear.No wind94%30.09 "Hg10 mi
11:50 pm
Mon, Oct 14
64 °FClear.No wind94%30.09 "Hg10 mi
11:20 pm64 °FClear.No wind94%30.09 "Hg10 mi
10:50 pm63 °FClear.No wind94%30.09 "Hg10 mi
10:20 pm64 °FClear.No wind88%30.09 "Hg10 mi
9:50 pm64 °FClear.No wind88%30.09 "Hg10 mi
8:50 pm66 °FClear.No wind83%30.09 "Hg10 mi
8:20 pm66 °FClear.No wind83%30.09 "Hg10 mi
7:50 pm66 °FClear.No wind83%30.09 "Hg10 mi
7:20 pm70 °FClear.No wind73%30.09 "Hg10 mi
6:50 pm73 °FSunny.No wind65%30.07 "Hg10 mi
6:20 pm75 °FSunny.3 mph61%30.07 "Hg10 mi
5:50 pm77 °FSunny.3 mph57%30.09 "Hg10 mi
5:20 pm77 °FPassing clouds.5 mph57%30.09 "HgN/A
4:50 pm77 °FPassing clouds.5 mph57%30.09 "HgN/A
4:20 pm79 °FPassing clouds.5 mph54%30.09 "HgN/A
3:50 pm79 °FPassing clouds.5 mph54%30.09 "HgN/A
3:20 pm79 °FPassing clouds.5 mph58%30.09 "HgN/A
2:50 pm81 °FPassing clouds.6 mph51%30.09 "HgN/A
2:20 pm79 °FSunny.6 mph54%30.12 "Hg10 mi
1:50 pm79 °FSunny.5 mph54%30.12 "Hg10 mi
1:20 pm79 °FSunny.3 mph61%30.12 "Hg10 mi
12:50 pm79 °FSunny.5 mph58%30.12 "Hg10 mi
12:20 pm79 °FSunny.5 mph58%30.15 "Hg10 mi
11:50 am75 °FSunny.No wind65%30.15 "Hg10 mi
10:50 am75 °FSunny.No wind69%30.15 "Hg10 mi
10:20 am72 °FSunny.No wind83%30.15 "Hg10 mi
9:50 am68 °FSunny.No wind100%30.15 "Hg10 mi
9:20 am66 °FSunny.No wind100%30.12 "Hg10 mi
8:50 am61 °FSunny.No wind100%30.12 "Hg10 mi
8:20 am57 °FSunny.No wind100%30.12 "Hg10 mi
7:50 am57 °FClear.No wind100%30.12 "Hg5 mi
7:20 am55 °FClear.No wind100%30.12 "Hg10 mi
6:50 am57 °FClear.No wind100%30.12 "Hg10 mi
6:20 am57 °FClear.No wind100%30.12 "Hg10 mi
5:50 am59 °FClear.No wind100%30.12 "Hg10 mi
5:20 am59 °FClear.No wind100%30.12 "Hg10 mi
4:50 am59 °FClear.No wind100%30.12 "Hg10 mi
4:20 am59 °FClear.No wind100%30.12 "Hg10 mi
3:50 am61 °FClear.No wind100%30.12 "Hg10 mi
3:20 am61 °FClear.No wind100%30.12 "Hg10 mi
2:50 am61 °FClear.No wind100%30.12 "Hg10 mi
2:20 am61 °FClear.No wind100%30.15 "Hg10 mi
Weather by CustomWeather, © 2019

See weather overview